No particular awareness of the weather is required.    There are no Weather-warnings


Meteo18 Weather Cam more information Meteo18 Weather Cam


Thunder radar more information blitzortung!


Rain radar more information rain snow radar


Visit our other weather sites:

Template documentation
and downloads

And another site



Weather Underground History page Text

Daily Summary for February 28, 2017 Units:  Metric    English   Both
« Previous Day
Next Day »
Daily Weekly Monthly Yearly Custom
  High: Low: Average:
Temperature: -17.8 °C -15.4 °C -14.8 °C
Dew Point: -17.8 °C -16.8 °C -16.1 °C
Humidity: Humidity % 79 % 85 %
Wind Speed: 0 km/h 5.1 km/h 26.7 km/h
Wind Gust: 0 km/h - -
Wind:- - SW
Pressure: 0 hPa 33694.1 hPa -
Precipitation: 58.42 mm    
Historical Graphs
 
 
Tabular Data for February 28, 2017
Time Temperature Dew Point Pressure Wind Wind Speed Wind Gust Humidity Rainfall Rate (Hourly)
-17.8 °C -17.8 °C 0 hPa Calm     Humidity % 0 mm
00:02 -14.6 °C -16.1 °C 33890.5 hPa SSW 31.1 km/h 59.5 km/h 83 % 0 mm
00:12 -14.5 °C -16.2 °C 33890.5 hPa SW 31.1 km/h 59.5 km/h 81 % 0 mm
00:17 -14.6 °C -16.2 °C 33900.6 hPa SW 49.2 km/h 57 km/h 81 % 0 mm
00:22 -14.6 °C -16.2 °C 33890.5 hPa South 25.9 km/h 57 km/h 81 % 0 mm
00:27 -14.6 °C -16.3 °C 33890.5 hPa South 33.6 km/h 62.1 km/h 81 % 0 mm
00:32 -14.7 °C -16.3 °C 33890.5 hPa West 59.5 km/h 62.1 km/h 81 % 0 mm
00:37 -14.7 °C -16.2 °C 33890.5 hPa SW 31.1 km/h 67.3 km/h 82 % 0 mm
00:42 -14.8 °C -16.3 °C 33890.5 hPa SW 33.6 km/h 67.3 km/h 82 % 0 mm
00:47 -14.8 °C -16.3 °C 33880.3 hPa SW 15.6 km/h 62.1 km/h 82 % 0 mm
00:52 -14.8 °C -16.3 °C 33880.3 hPa WSW 33.6 km/h 62.1 km/h 83 % 0 mm
00:57 -14.8 °C -16.3 °C 33890.5 hPa SW 44.1 km/h 59.5 km/h 83 % 0 mm
01:02 -14.8 °C -16.4 °C 33890.5 hPa SW 23.3 km/h 57 km/h 82 % 0 mm
01:12 -14.8 °C -16.3 °C 33890.5 hPa SW 25.9 km/h 51.8 km/h 83 % 0 mm
01:17 -14.8 °C -16.3 °C 33900.6 hPa SW 12.9 km/h 49.2 km/h 83 % 0 mm
01:22 -14.9 °C -16.4 °C 33900.6 hPa WSW 18.2 km/h 62.1 km/h 83 % 0 mm
01:32 -14.9 °C -16.3 °C 33900.6 hPa SW 20.8 km/h 62.1 km/h 84 % 0 mm
01:37 -14.9 °C -16.2 °C 33900.6 hPa SW 28.5 km/h 44.1 km/h 85 % 0 mm
01:42 -14.9 °C -16.1 °C 33890.5 hPa SW 18.2 km/h 44.1 km/h 86 % 0 mm
01:47 -14.9 °C -16.1 °C 33890.5 hPa SW 31.1 km/h 46.7 km/h 86 % 0 mm
01:52 -15 °C -16.1 °C 33900.6 hPa WSW 23.3 km/h 46.7 km/h 87 % 0 mm
01:57 -15 °C -16.1 °C 33900.6 hPa SW 38.8 km/h 41.4 km/h 87 % 0 mm
02:02 -14.9 °C -15.9 °C 33900.6 hPa SSW 20.8 km/h 41.4 km/h 88 % 0 mm
02:07 -14.9 °C -15.9 °C 33900.6 hPa SW 20.8 km/h 44.1 km/h 88 % 0 mm
02:12 -15 °C -16 °C 33900.6 hPa West 28.5 km/h 44.1 km/h 88 % 0 mm
02:17 -14.9 °C -15.9 °C 33900.6 hPa SSW 15.6 km/h 41.4 km/h 88 % 0 mm
02:22 -14.9 °C -15.9 °C 33900.6 hPa SW 36.2 km/h 38.8 km/h 88 % 0 mm
02:27 -14.9 °C -15.9 °C 33900.6 hPa SW 38.8 km/h 38.8 km/h 88 % 0 mm
02:32 -15 °C -16 °C 33900.6 hPa SW 12.9 km/h 38.8 km/h 88 % 0 mm
02:37 -15.1 °C -16.1 °C 33890.5 hPa WSW 23.3 km/h 38.8 km/h 88 % 0 mm
02:42 -15.1 °C -16.1 °C 33890.5 hPa WSW 20.8 km/h 38.8 km/h 88 % 0 mm
02:47 -15.1 °C -16.1 °C 33890.5 hPa SW 23.3 km/h 38.8 km/h 88 % 0 mm
02:52 -15.1 °C -16.1 °C 33890.5 hPa South 12.9 km/h 38.8 km/h 88 % 0 mm
02:57 -15.3 °C -16.2 °C 33890.5 hPa SW 10.3 km/h 31.1 km/h 89 % 0 mm
03:02 -15.3 °C -16.2 °C 33890.5 hPa SW 12.9 km/h 31.1 km/h 90 % 0 mm
03:12 -15.3 °C -16 °C 33890.5 hPa SSW 12.9 km/h 28.5 km/h 91 % 0 mm
03:17 -15.2 °C -15.9 °C 33890.5 hPa SSW 28.5 km/h 28.5 km/h 91 % 0 mm
03:22 -15.1 °C -16 °C 33880.3 hPa SW 25.9 km/h 31.1 km/h 89 % 0 mm
03:27 -14.9 °C -15.9 °C 33880.3 hPa WSW 33.6 km/h 41.4 km/h 88 % 0 mm
03:37 -14.8 °C -15.9 °C 33880.3 hPa SW 20.8 km/h 49.2 km/h 87 % 0 mm
03:42 -14.8 °C -16.1 °C 33880.3 hPa West 23.3 km/h 49.2 km/h 86 % 0 mm
03:52 -14.8 °C -16.1 °C 33880.3 hPa SW 23.3 km/h 51.8 km/h 86 % 0 mm
03:57 -14.9 °C -16.1 °C 33880.3 hPa SW 28.5 km/h 51.8 km/h 86 % 0 mm
04:02 -14.9 °C -16.1 °C 33880.3 hPa SW 25.9 km/h 51.8 km/h 86 % 0 mm
04:12 -15.1 °C -16.2 °C 33880.3 hPa SW 23.3 km/h 44.1 km/h 87 % 0 mm
04:17 -15.1 °C -16.2 °C 33880.3 hPa SW 20.8 km/h 44.1 km/h 87 % 0 mm
04:22 -15.1 °C -16.2 °C 33880.3 hPa WSW 23.3 km/h 38.8 km/h 86 % 0 mm
04:32 -15 °C -16.2 °C 33880.3 hPa SW 25.9 km/h 38.8 km/h 86 % 0 mm
04:42 -15.1 °C -16.2 °C 33880.3 hPa SW 20.8 km/h 36.2 km/h 87 % 0 mm
04:47 -15.1 °C -16.1 °C 33880.3 hPa SSW 20.8 km/h 38.8 km/h 88 % 0 mm
04:52 -15.1 °C -16.1 °C 33880.3 hPa SW 28.5 km/h 38.8 km/h 88 % 0 mm
04:57 -15.1 °C -16.1 °C 33866.8 hPa SW 15.6 km/h 38.8 km/h 88 % 0 mm
05:02 -14.9 °C -15.9 °C 33866.8 hPa SW 28.5 km/h 38.8 km/h 88 % 0 mm
05:07 -15 °C -16 °C 33866.8 hPa SSW 12.9 km/h 38.8 km/h 88 % 0 mm
05:12 -15.1 °C -16.1 °C 33866.8 hPa SSW 15.6 km/h 38.8 km/h 89 % 0 mm
05:17 -15.2 °C -16.1 °C 33856.6 hPa SW 25.9 km/h 38.8 km/h 89 % 0 mm
05:22 -15.3 °C -16.1 °C 33866.8 hPa SW 23.3 km/h 31.1 km/h 90 % 0 mm
05:27 -15.3 °C -16.2 °C 33856.6 hPa SW 28.5 km/h 31.1 km/h 90 % 0 mm
05:32 -15.3 °C -16.2 °C 33856.6 hPa SW 18.2 km/h 33.6 km/h 90 % 0 mm
05:42 -15.3 °C -16.1 °C 33856.6 hPa SSW 23.3 km/h 38.8 km/h 90 % 0 mm
05:47 -15.2 °C -16.1 °C 33856.6 hPa SSW 25.9 km/h 38.8 km/h 90 % 0 mm
05:52 -15.2 °C -16 °C 33856.6 hPa SW 25.9 km/h 41.4 km/h 90 % 0 mm
06:02 -15.3 °C -16.1 °C 33843.1 hPa SW 28.5 km/h 41.4 km/h 90 % 0 mm
06:07 -15.3 °C -16.2 °C 33843.1 hPa SW 20.8 km/h 41.4 km/h 90 % 0 mm
06:12 -15.3 °C -16.1 °C 33832.9 hPa SW 36.2 km/h 41.4 km/h 91 % 0 mm
06:17 -15.3 °C -16.1 °C 33822.8 hPa SW 25.9 km/h 41.4 km/h 91 % 0 mm
06:22 -15.3 °C -16.1 °C 33832.9 hPa SSW 12.9 km/h 38.8 km/h 91 % 0 mm
06:32 -15.4 °C -16.1 °C 33832.9 hPa SSW 10.3 km/h 38.8 km/h 91 % 0 mm
06:37 -15.4 °C -16.1 °C 33832.9 hPa SSW 15.6 km/h 33.6 km/h 91 % 0 mm
06:42 -15.4 °C -16.1 °C 33832.9 hPa SW 25.9 km/h 33.6 km/h 91 % 0 mm
06:47 -15.3 °C -16.1 °C 33822.8 hPa SW 18.2 km/h 33.6 km/h 91 % 0 mm
06:52 -15.4 °C -16.1 °C 33822.8 hPa SSW 20.8 km/h 31.1 km/h 91 % 0 mm
07:02 -15.3 °C -16.2 °C 33809.2 hPa SSW 23.3 km/h 31.1 km/h 90 % 0 mm
07:07 -15.4 °C -16.2 °C 33809.2 hPa SSW 15.6 km/h 31.1 km/h 90 % 0 mm
07:12 -15.4 °C -16.2 °C 33809.2 hPa SSE 12.9 km/h 33.6 km/h 90 % 0 mm
07:17 -15.4 °C -16.3 °C 33799.1 hPa South 15.6 km/h 33.6 km/h 90 % 0 mm
07:22 -15.4 °C -16.3 °C 33799.1 hPa SSW 18.2 km/h 28.5 km/h 90 % 0 mm
07:32 -15.4 °C -16.3 °C 33799.1 hPa SSW 18.2 km/h 36.2 km/h 90 % 0 mm
07:42 -15.4 °C -16.3 °C 33788.9 hPa SSW 23.3 km/h 36.2 km/h 89 % 0 mm
07:47 -15.3 °C -16.3 °C 33788.9 hPa SSW 31.1 km/h 36.2 km/h 89 % 0 mm
07:52 -15.2 °C -16.2 °C 33788.9 hPa SSW 20.8 km/h 38.8 km/h 89 % 0 mm
07:57 -15.2 °C -16.2 °C 33775.4 hPa SW 15.6 km/h 38.8 km/h 88 % 0 mm
08:02 -15.1 °C -16.1 °C 33775.4 hPa SSW 20.8 km/h 38.8 km/h 88 % 0 mm
08:07 -15.1 °C -16.2 °C 33775.4 hPa South 20.8 km/h 38.8 km/h 87 % 0 mm
08:12 -15.1 °C -16.2 °C 33765.2 hPa South 18.2 km/h 38.8 km/h 87 % 0 mm
08:22 -14.9 °C -16.1 °C 33765.2 hPa SSW 23.3 km/h 36.2 km/h 86 % 0 mm
08:32 -14.9 °C -16.1 °C 33751.6 hPa SSW 20.8 km/h 51.8 km/h 86 % 0 mm
08:37 -14.9 °C -16.1 °C 33751.6 hPa SSE 20.8 km/h 51.8 km/h 86 % 0 mm
08:42 -14.9 °C -16 °C 33751.6 hPa SSE 25.9 km/h 44.1 km/h 87 % 0 mm
08:47 -14.9 °C -16 °C 33741.5 hPa SSW 5.1 km/h 44.1 km/h 87 % 0 mm
08:52 -14.9 °C -15.9 °C 33731.3 hPa SSE 5.1 km/h 38.8 km/h 89 % 7.62 mm
09:02 -15.1 °C -15.9 °C 33731.3 hPa SSE 7.7 km/h 28.5 km/h 90 % 12.7 mm
09:12 -15.1 °C -15.8 °C 33707.6 hPa SE 12.9 km/h 28.5 km/h 91 % 12.7 mm
09:22 -14.9 °C -15.8 °C 33707.6 hPa SSE 12.9 km/h 36.2 km/h 90 % 12.7 mm
09:27 -14.9 °C -15.7 °C 33707.6 hPa SSE 15.6 km/h 36.2 km/h 90 % 12.7 mm
09:32 -14.9 °C -15.7 °C 33707.6 hPa SSE 12.9 km/h 46.7 km/h 90 % 12.7 mm
09:37 -14.8 °C -15.7 °C 33707.6 hPa SSW 25.9 km/h 46.7 km/h 90 % 12.7 mm
09:42 -14.8 °C -15.8 °C 33707.6 hPa SSW 38.8 km/h 44.1 km/h 89 % 12.7 mm
09:47 -14.8 °C -15.7 °C 33707.6 hPa South 33.6 km/h 44.1 km/h 89 % 12.7 mm
09:52 -14.8 °C -15.7 °C 33694.1 hPa SW 44.1 km/h 44.1 km/h 89 % 12.7 mm
09:57 -14.8 °C -15.7 °C 33694.1 hPa South 23.3 km/h 44.1 km/h 89 % 12.7 mm
10:02 -14.7 °C -15.7 °C 33707.6 hPa SSW 38.8 km/h 59.5 km/h 89 % 12.7 mm
10:12 -14.7 °C -15.5 °C 33707.6 hPa SW 38.8 km/h 59.5 km/h 90 % 12.7 mm
10:17 -14.7 °C -15.4 °C 33707.6 hPa SSW 57 km/h 59.5 km/h 91 % 12.7 mm
10:22 -14.7 °C -15.4 °C 33717.8 hPa SW 38.8 km/h 75.2 km/h 91 % 12.7 mm
10:32 -14.7 °C -15.6 °C 33707.6 hPa SW 25.9 km/h 77.7 km/h 89 % 20.32 mm
10:42 -14.7 °C -15.7 °C 33717.8 hPa WSW 12.9 km/h 77.7 km/h 89 % 20.32 mm
10:52 -14.8 °C -15.8 °C 33707.6 hPa SSW 36.2 km/h 72.6 km/h 89 % 20.32 mm
10:57 -14.8 °C -15.7 °C 33707.6 hPa SW 36.2 km/h 72.6 km/h 89 % 20.32 mm
11:02 -14.7 °C -15.7 °C 33694.1 hPa WSW 28.5 km/h 59.5 km/h 89 % 20.32 mm
11:12 -14.7 °C -15.6 °C 33694.1 hPa SW 38.8 km/h 67.3 km/h 89 % 12.7 mm
11:17 -14.6 °C -15.6 °C 33694.1 hPa SW 49.2 km/h 67.3 km/h 89 % 12.7 mm
11:22 -14.5 °C -15.5 °C 33694.1 hPa SW 36.2 km/h 59.5 km/h 88 % 12.7 mm
11:32 -14.4 °C -15.7 °C 33707.6 hPa SW 33.6 km/h 75.2 km/h 86 % 7.62 mm
11:37 -14.4 °C -15.7 °C 33707.6 hPa SW 12.9 km/h 75.2 km/h 86 % 7.62 mm
11:42 -14.4 °C -15.7 °C 33707.6 hPa WSW 36.2 km/h 69.8 km/h 85 % 7.62 mm
11:47 -14.5 °C -15.8 °C 33707.6 hPa SW 44.1 km/h 69.8 km/h 85 % 7.62 mm
11:52 -14.5 °C -15.7 °C 33707.6 hPa SW 36.2 km/h 72.6 km/h 86 % 0 mm
11:57 -14.4 °C -15.7 °C 33707.6 hPa WSW 12.9 km/h 72.6 km/h 86 % 0 mm
12:02 -14.5 °C -15.8 °C 33717.8 hPa West 18.2 km/h 72.6 km/h 85 % 0 mm
12:12 -14.7 °C -15.9 °C 33731.3 hPa WSW 49.2 km/h 80.3 km/h 86 % 0 mm
12:17 -14.8 °C -16 °C 33717.8 hPa WSW 49.2 km/h 80.3 km/h 86 % 0 mm
12:22 -14.8 °C -15.9 °C 33731.3 hPa WSW 33.6 km/h 69.8 km/h 87 % 0 mm
12:32 -14.8 °C -15.9 °C 33731.3 hPa SW 31.1 km/h 69.8 km/h 87 % 0 mm
12:42 -14.8 °C -16 °C 33731.3 hPa SW 49.2 km/h 64.7 km/h 86 % 7.62 mm
12:47 -14.9 °C -16 °C 33731.3 hPa WSW 57 km/h 64.7 km/h 87 % 7.62 mm
12:52 -14.9 °C -15.9 °C 33731.3 hPa WSW 41.4 km/h 72.6 km/h 88 % 7.62 mm
13:02 -14.8 °C -15.8 °C 33731.3 hPa SW 38.8 km/h 72.6 km/h 89 % 7.62 mm
13:12 -14.6 °C -15.7 °C 33731.3 hPa SW 28.5 km/h 57 km/h 87 % 7.62 mm
13:22 -14.3 °C -15.4 °C 33731.3 hPa SSW 20.8 km/h 62.1 km/h 87 % 7.62 mm
13:32 -14.2 °C -15.5 °C 33717.8 hPa SW 44.1 km/h 62.1 km/h 85 % 0 mm
13:42 -14.2 °C -15.7 °C 33731.3 hPa WSW 36.2 km/h 72.6 km/h 83 % 0 mm
13:52 -14.1 °C -15.6 °C 33731.3 hPa SW 49.2 km/h 69.8 km/h 83 % 0 mm
14:02 -14.1 °C -15.6 °C 33731.3 hPa SW 41.4 km/h 77.7 km/h 83 % 0 mm
14:12 -13.9 °C -15.6 °C 33717.8 hPa SW 44.1 km/h 77.7 km/h 81 % 0 mm
14:17 -13.8 °C -15.6 °C 33717.8 hPa SW 31.1 km/h 62.1 km/h 80 % 0 mm
14:22 -13.8 °C -15.6 °C 33717.8 hPa SW 36.2 km/h 88 km/h 80 % 0 mm
14:32 -13.8 °C -15.5 °C 33717.8 hPa WSW 25.9 km/h 88 km/h 81 % 0 mm
14:37 -13.9 °C -15.5 °C 33717.8 hPa WSW 69.8 km/h 82.9 km/h 82 % 0 mm
14:42 -13.9 °C -15.6 °C 33717.8 hPa WSW 51.8 km/h 82.9 km/h 81 % 0 mm
14:47 -13.7 °C -15.4 °C 33717.8 hPa SW 25.9 km/h 85.5 km/h 81 % 0 mm
14:52 -13.7 °C -15.6 °C 33717.8 hPa WSW 28.5 km/h 85.5 km/h 79 % 0 mm
15:02 -14.1 °C -15.5 °C 33741.5 hPa WSW 59.5 km/h 106.2 km/h 84 % 7.62 mm
15:12 -14.4 °C -15.8 °C 33765.2 hPa West 44.1 km/h 106.2 km/h 84 % 7.62 mm
15:17 -14.6 °C -15.9 °C 33775.4 hPa WNW 64.7 km/h 106.2 km/h 84 % 7.62 mm
15:22 -14.6 °C -16 °C 33788.9 hPa WNW 57 km/h 82.9 km/h 84 % 7.62 mm
15:32 -14.7 °C -15.9 °C 33799.1 hPa West 41.4 km/h 82.9 km/h 85 % 7.62 mm
15:42 -14.5 °C -16 °C 33799.1 hPa WNW 49.2 km/h 77.7 km/h 83 % 7.62 mm
15:52 -14.4 °C -15.9 °C 33809.2 hPa WNW 59.5 km/h 77.7 km/h 82 % 7.62 mm
15:57 -14.3 °C -15.7 °C 33822.8 hPa WNW 49.2 km/h 82.9 km/h 84 % 0 mm
16:02 -14.2 °C -15.7 °C 33832.9 hPa WNW 25.9 km/h 82.9 km/h 83 % 0 mm
16:12 -14.2 °C -15.8 °C 33843.1 hPa West 18.2 km/h 82.9 km/h 81 % 0 mm
16:17 -14.1 °C -15.9 °C 33843.1 hPa West 18.2 km/h 80.3 km/h 80 % 0 mm
16:22 -14.2 °C -16 °C 33843.1 hPa WNW 38.8 km/h 80.3 km/h 80 % 0 mm
16:32 -14.2 °C -16.1 °C 33856.6 hPa WNW 23.3 km/h 62.1 km/h 79 % 0 mm
16:42 -14.3 °C -16.1 °C 33866.8 hPa WSW 25.9 km/h 77.7 km/h 80 % 0 mm
16:47 -14.3 °C -16.1 °C 33866.8 hPa West 46.7 km/h 77.7 km/h 80 % 0 mm
16:52 -14.3 °C -16.1 °C 33880.3 hPa West 49.2 km/h 77.7 km/h 80 % 0 mm
16:57 -14.3 °C -16 °C 33880.3 hPa West 38.8 km/h 69.8 km/h 81 % 0 mm
17:02 -14.4 °C -15.9 °C 33890.5 hPa West 46.7 km/h 69.8 km/h 83 % 0 mm
17:12 -14.4 °C -16 °C 33900.6 hPa NW 51.8 km/h 59.5 km/h 82 % 0 mm
17:17 -14.3 °C -15.9 °C 33900.6 hPa West 44.1 km/h 80.3 km/h 82 % 0 mm
17:22 -14.3 °C -15.9 °C 33914.2 hPa WNW 33.6 km/h 80.3 km/h 81 % 0 mm
17:32 -14.3 °C -15.8 °C 33924.3 hPa West 23.3 km/h 57 km/h 83 % 0 mm
17:42 -14.4 °C -15.8 °C 33937.9 hPa West 23.3 km/h 44.1 km/h 84 % 0 mm
17:47 -14.4 °C -15.8 °C 33948 hPa West 18.2 km/h 38.8 km/h 84 % 0 mm
17:52 -14.4 °C -15.8 °C 33948 hPa WNW 23.3 km/h 38.8 km/h 84 % 0 mm
18:02 -14.3 °C -15.6 °C 33958.2 hPa WNW 7.7 km/h 44.1 km/h 85 % 0 mm
18:12 -14.3 °C -15.8 °C 33971.7 hPa WSW 10.3 km/h 44.1 km/h 83 % 0 mm
18:17 -14.3 °C -15.8 °C 33981.9 hPa West 20.8 km/h 28.5 km/h 83 % 0 mm
18:22 -14.4 °C -15.8 °C 33981.9 hPa WSW 10.3 km/h 28.5 km/h 84 % 0 mm
18:32 -14.5 °C -15.9 °C 33981.9 hPa WSW 18.2 km/h 28.5 km/h 84 % 0 mm
18:42 -14.6 °C -15.9 °C 33992.1 hPa WSW 7.7 km/h 33.6 km/h 85 % 0 mm
18:47 -14.6 °C -15.9 °C 34005.6 hPa WSW 12.9 km/h 25.9 km/h 85 % 0 mm
18:57 -14.7 °C -15.9 °C 34015.8 hPa SW 5.1 km/h 23.3 km/h 85 % 0 mm
19:02 -14.7 °C -16.2 °C 34015.8 hPa SW 7.7 km/h 23.3 km/h 83 % 0 mm
19:12 -14.6 °C -16.3 °C 34029.3 hPa SSW 10.3 km/h 31.1 km/h 81 % 0 mm
19:17 -14.6 °C -16.3 °C 34029.3 hPa WSW 5.1 km/h 31.1 km/h 81 % 0 mm
19:22 -14.7 °C -16.3 °C 34029.3 hPa West 31.1 km/h 31.1 km/h 81 % 0 mm
19:27 -14.6 °C -16.4 °C 34039.5 hPa SW 12.9 km/h 28.5 km/h 80 % 0 mm
19:32 -14.7 °C -16.4 °C 34039.5 hPa SW 15.6 km/h 31.1 km/h 80 % 0 mm
19:37 -14.8 °C -16.4 °C 34039.5 hPa SW 15.6 km/h 31.1 km/h 81 % 0 mm
19:42 -14.8 °C -16.6 °C 34049.6 hPa SW 18.2 km/h 31.1 km/h 80 % 0 mm
19:52 -14.9 °C -16.6 °C 34049.6 hPa SW 12.9 km/h 28.5 km/h 81 % 0 mm
19:57 -14.9 °C -16.6 °C 34049.6 hPa SW 15.6 km/h 28.5 km/h 81 % 0 mm
20:02 -14.9 °C -16.6 °C 34049.6 hPa SW 18.2 km/h 28.5 km/h 81 % 0 mm
20:12 -15.1 °C -16.6 °C 34049.6 hPa SW 15.6 km/h 28.5 km/h 83 % 0 mm
20:17 -15.1 °C -16.6 °C 34049.6 hPa SSW 12.9 km/h 28.5 km/h 82 % 0 mm
20:22 -14.9 °C -16.6 °C 34063.2 hPa SSW 7.7 km/h 28.5 km/h 81 % 0 mm
20:32 -15 °C -16.7 °C 34063.2 hPa WSW 7.7 km/h 28.5 km/h 81 % 0 mm
20:42 -15.4 °C -16.8 °C 34073.3 hPa SW 12.9 km/h 28.5 km/h 84 % 0 mm
20:47 -15.4 °C -16.7 °C 34073.3 hPa SW 5.1 km/h 20.8 km/h 85 % 0 mm
20:52 -15.3 °C -16.7 °C 34086.9 hPa SSW 10.3 km/h 20.8 km/h 84 % 0 mm
20:57 -15.2 °C -16.6 °C 34086.9 hPa WSW 18.2 km/h 20.8 km/h 83 % 0 mm
21:02 -15.1 °C -16.6 °C 34086.9 hPa SW 12.9 km/h 31.1 km/h 83 % 0 mm
21:12 -15 °C -16.7 °C 34086.9 hPa South 18.2 km/h 31.1 km/h 81 % 0 mm
21:17 -14.9 °C -16.7 °C 34086.9 hPa SW 31.1 km/h 38.8 km/h 80 % 0 mm
21:22 -14.9 °C -16.7 °C 34086.9 hPa SW 18.2 km/h 38.8 km/h 80 % 0 mm
21:32 -14.9 °C -16.6 °C 34097 hPa SW 20.8 km/h 38.8 km/h 81 % 0 mm
21:42 -14.8 °C -16.5 °C 34097 hPa WSW 12.9 km/h 36.2 km/h 81 % 0 mm
21:52 -14.8 °C -16.4 °C 34097 hPa SW 20.8 km/h 49.2 km/h 81 % 0 mm
21:57 -14.8 °C -16.4 °C 34097 hPa WSW 31.1 km/h 49.2 km/h 81 % 0 mm
22:02 -14.7 °C -16.4 °C 34097 hPa SW 38.8 km/h 44.1 km/h 80 % 0 mm
22:12 -14.6 °C -16.5 °C 34097 hPa WSW 33.6 km/h 51.8 km/h 79 % 0 mm
22:17 -14.6 °C -16.5 °C 34097 hPa SW 36.2 km/h 51.8 km/h 79 % 0 mm
22:22 -14.6 °C -16.5 °C 34097 hPa SW 41.4 km/h 49.2 km/h 79 % 0 mm
22:32 -14.6 °C -16.4 °C 34107.2 hPa West 46.7 km/h 49.2 km/h 79 % 0 mm
22:42 -14.6 °C -16.4 °C 34107.2 hPa SW 28.5 km/h 51.8 km/h 79 % 0 mm
22:47 -14.6 °C -16.4 °C 34107.2 hPa WSW 20.8 km/h 59.5 km/h 79 % 0 mm
22:52 -14.6 °C -16.3 °C 34107.2 hPa SW 12.9 km/h 59.5 km/h 80 % 0 mm
23:02 -14.6 °C -16.3 °C 34097 hPa West 20.8 km/h 54.4 km/h 81 % 0 mm
23:12 -14.6 °C -16.2 °C 34097 hPa SW 25.9 km/h 54.4 km/h 82 % 0 mm
23:17 -14.6 °C -16.2 °C 34097 hPa WSW 25.9 km/h 49.2 km/h 82 % 0 mm
23:22 -14.6 °C -16.1 °C 34097 hPa WSW 18.2 km/h 44.1 km/h 83 % 0 mm
23:32 -14.7 °C -15.9 °C 34107.2 hPa SW 15.6 km/h 44.1 km/h 85 % 0 mm
23:42 -14.7 °C -15.8 °C 34107.2 hPa SSW 41.4 km/h 54.4 km/h 87 % 0 mm
23:47 -14.7 °C -15.8 °C 34107.2 hPa SW 31.1 km/h 54.4 km/h 87 % 7.62 mm
23:52 -14.6 °C -15.8 °C 34107.2 hPa SW 33.6 km/h 54.4 km/h 86 % 7.62 mm
23:57 -14.6 °C -15.8 °C 34107.2 hPa SW 46.7 km/h 59.5 km/h 86 % 7.62 mm
Meteo18
Compliments of Weather Underground - 4 mb

Script developed by  Jim McMurry - jmcmurry@mwt.net Adapted for the template by  Wim van der Kuil - Leuven-Template.eu

You find our weather info also at:

European Weather Network

Weather Underground

Equipment we use:

Weather-station
Davis Vue

Weather-program
Meteobridge

Weather-server
Raspberry PI 2 B+

Provider
1 and 1

Davis Vue

Meteobridge

Raspberry PI 2 B+

1 and 1